STARLINK-32401, 61865

Orbit data source: Space-Track

STARLINK-32401, 61865 is a payload satellite owned by SpaceX/Seattle (US) in LEO that was launched on Thu, 07 Nov 2024 UTC via an FALCON 9 launch vehicle from the Air Force Eastern Test Range (AFETR). Payload-class satellites include a variety of spacecraft equipped with specific instruments for various scientific and technological missions. These include communications satellites like Starlink; space stations such as the ISS; scientific satellites like the Hubble; Earth observation satellites from companies like Planet Labs, Umbra, and HawkEye 360; GPS; miniature CubeSats for education and research; and military/defense satellites.

Loading next visibility...
Identifier
61865, 2024-202W
Orbit
LEO
Country
Flag of USUS
Related business
Manufacturer
SpaceX/Seattle
Mission
Operational Commercial Communications
Bus & Motor
STARLINK V2M, Unknown motor
Mass
730 kg wet, ~700 kg dry
Launch date (UTC)
2024-11-07 (1 year ago)
Launch vehicle
FALCON 9
Launch site
Air Force Eastern Test Range (AFETR)
Object type
Payload
Rocket body
Debris
Shape & HBR
Box + 2 Pan, 17.7 m
Radar Cross Section
33.884 m², Large (>1 m²)

Expand to show TLE details & history
Last TLE update: 1 day ago

TLE from 1 day ago
0 STARLINK-32401
1 61865U 24202W   26124.13793940  .00001907  00000-0  78794-4 0  9993
2 61865  43.0017 285.1933 0002003 275.5255  84.5368 15.27583075 83817
Epoch: 2026-05-04T03:18Z
TLE epoch observation values (Epoch: 2026-05-04T03:18:37.964Z)
Latitude
-0.00002°
Longitude
13.50365°
Altitude
482.685 km
Speed
7.626 km/s
True Right ascension
19h 00m 46s
True Declination
0° 00' 00"
Sunlit
Object was in full shadow at epoch
Visualization orbit readout
Latitude
Unknown
Longitude
Unknown
Altitude
Unknown
Speed
Unknown
Apparent Right ascension
Unknown
Apparent Declination
Unknown
Sunlit
N/A
Visualization observer readout
Local Sidereal Time
20:49:41
Azimuth
Unknown
Elevation
Unknown
Doppler factor
Unknown
Orbital elements
Apogee altitude
486.359 km
Perigee altitude
483.61 km
Semi-major axis
6,863.122 km
Eccentricity
0.0002
Inclination
43.0017°
RAAN
285.1933°
Arg. of periapsis
275.5255°
True anomaly
84.55965°
Mean anomaly
84.5368°
Eccentric anomaly
84.54822°
Mean motion
3.81734 °/min
Orbital period
94.31 mins
BSTAR
0.000078794
Loading maneuver chart data...
Computing Atmospheric mass density...
Loading historical data...
Loading historical data...
Loading historical data...
Loading historical data...
Loading historical data...
Loading historical data...
Loading historical data...

Documentation

Showing up to 5 results
|